Time,TemperatureF,DewpointF,PressureIn,WindDirection,WindDirectionDegrees,WindSpeedMPH,WindSpeedGustMPH,Humidity,HourlyPrecipIn,Conditions,Clouds,dailyrainin,SoftwareType,DateUTC
2013-07-10 00:00:00,70.2,67.1,30.36,NE,47,2.7,5.4,90,-99.99,,,0.00,VWS V14.01,2013-07-10 04:00:00,
2013-07-10 00:30:00,69.8,67.1,30.36,SSE,168,2.7,5.8,91,-99.99,,,0.00,VWS V14.01,2013-07-10 04:30:00,
2013-07-10 01:00:00,69.6,66.9,30.36,NE,43,0.0,6.3,91,-99.99,,,0.00,VWS V14.01,2013-07-10 05:00:00,
2013-07-10 01:30:00,69.3,66.5,30.36,NE,56,0.0,6.3,91,-99.99,,,0.00,VWS V14.01,2013-07-10 05:30:00,
2013-07-10 02:00:00,69.3,66.5,30.36,NE,46,4.0,5.4,91,-99.99,,,0.00,VWS V14.01,2013-07-10 06:00:00,
2013-07-10 02:30:00,69.3,66.5,30.33,East,83,3.6,4.9,91,-99.99,,,0.00,VWS V14.01,2013-07-10 06:30:00,
2013-07-10 03:00:00,69.1,66.3,30.33,East,89,0.0,4.9,91,-99.99,,,0.00,VWS V14.01,2013-07-10 07:00:00,
2013-07-10 03:30:00,68.9,66.5,30.33,East,86,0.0,4.5,92,-99.99,,,0.00,VWS V14.01,2013-07-10 07:30:00,
2013-07-10 04:00:00,68.5,66.1,30.33,East,84,0.0,4.5,92,-99.99,,,0.00,VWS V14.01,2013-07-10 08:00:00,
2013-07-10 04:30:00,68.5,66.1,30.33,East,84,0.0,4.5,92,-99.99,,,0.00,VWS V14.01,2013-07-10 08:30:00,
2013-07-10 05:00:00,68.5,66.1,30.33,ESE,110,0.0,5.4,92,-99.99,,,0.00,VWS V14.01,2013-07-10 09:00:00,
2013-07-10 05:30:00,68.2,65.8,30.33,ESE,111,0.0,0.0,92,-99.99,,,0.00,VWS V14.01,2013-07-10 09:30:00,
2013-07-10 06:00:00,68.4,66.3,30.33,ESE,111,0.0,4.0,93,-99.99,,,0.00,VWS V14.01,2013-07-10 10:00:00,
2013-07-10 06:30:00,68.4,66.3,30.33,NE,56,0.0,4.5,93,-99.99,,,0.00,VWS V14.01,2013-07-10 10:30:00,
2013-07-10 07:00:00,68.4,66.3,30.33,NE,56,0.0,4.5,93,-99.99,,,0.00,VWS V14.01,2013-07-10 11:00:00,
2013-07-10 07:30:00,68.9,66.8,30.33,NE,56,0.0,0.0,93,-99.99,,,0.00,VWS V14.01,2013-07-10 11:30:00,
2013-07-10 08:00:00,69.6,67.5,30.33,NNE,28,3.1,4.5,93,-99.99,,,0.00,VWS V14.01,2013-07-10 12:00:00,
2013-07-10 08:30:00,70.3,68.2,30.33,NNE,28,0.0,3.1,93,-99.99,,,0.00,VWS V14.01,2013-07-10 12:30:00,
2013-07-10 09:00:00,70.5,68.4,30.33,NNE,25,0.0,3.6,93,-99.99,,,0.00,VWS V14.01,2013-07-10 13:00:00,
2013-07-10 09:30:00,71.2,69.1,30.33,NE,41,0.0,3.6,93,-99.99,,,0.00,VWS V14.01,2013-07-10 13:30:00,
2013-07-10 10:00:00,72.7,70.5,30.33,WSW,247,0.0,0.0,93,-99.99,,,0.00,VWS V14.01,2013-07-10 14:00:00,
2013-07-10 10:30:00,73.8,71.6,30.33,WSW,238,0.0,0.0,93,-99.99,,,0.00,VWS V14.01,2013-07-10 14:30:00,
2013-07-10 11:00:00,75.0,72.9,30.33,NNE,21,0.0,0.0,93,-99.99,,,0.00,VWS V14.01,2013-07-10 15:00:00,
2013-07-10 11:30:00,76.5,74.3,30.33,NNE,15,0.0,0.0,93,-99.99,,,0.00,VWS V14.01,2013-07-10 15:30:00,
2013-07-10 12:00:00,75.2,72.7,30.33,ENE,59,0.0,6.3,92,-99.99,,,0.12,VWS V14.01,2013-07-10 16:00:00,
2013-07-10 12:30:00,72.7,70.2,30.33,ENE,59,0.0,5.8,92,-99.99,,,0.16,VWS V14.01,2013-07-10 16:30:00,
2013-07-10 13:00:00,72.5,70.1,30.30,ENE,58,0.0,0.0,92,-99.99,,,0.16,VWS V14.01,2013-07-10 17:00:00,
2013-07-10 13:30:00,77.4,75.2,30.27,NE,53,0.0,0.0,93,-99.99,,,0.16,VWS V14.01,2013-07-10 17:30:00,
2013-07-10 14:00:00,81.5,78.6,30.27,NE,35,0.0,2.7,91,-99.99,,,0.16,VWS V14.01,2013-07-10 18:00:00,
2013-07-10 14:30:00,84.6,81.0,30.27,SW,225,0.0,4.9,89,-99.99,,,0.16,VWS V14.01,2013-07-10 18:30:00,
2013-07-10 15:00:00,81.0,70.7,30.27,SSW,201,0.0,7.4,71,-99.99,,,0.16,VWS V14.01,2013-07-10 19:00:00,
2013-07-10 15:30:00,73.6,63.6,30.27,SW,216,0.0,11.2,71,-99.99,,,0.31,VWS V14.01,2013-07-10 19:30:00,
2013-07-10 16:00:00,72.1,65.6,30.24,NE,54,0.0,4.9,80,-99.99,,,0.31,VWS V14.01,2013-07-10 20:00:00,
2013-07-10 16:30:00,72.3,66.9,30.24,NE,41,0.0,3.6,83,-99.99,,,0.31,VWS V14.01,2013-07-10 20:30:00,
2013-07-10 17:00:00,73.2,68.4,30.24,SSW,207,0.0,6.9,85,-99.99,,,0.31,VWS V14.01,2013-07-10 21:00:00,
2013-07-10 17:30:00,73.0,68.3,30.24,NE,44,0.0,6.3,85,-99.99,,,0.31,VWS V14.01,2013-07-10 21:30:00,
2013-07-10 18:00:00,73.4,69.0,30.24,NE,46,0.0,3.6,86,-99.99,,,0.31,VWS V14.01,2013-07-10 22:00:00,
2013-07-10 18:30:00,72.9,68.4,30.21,NE,48,0.0,4.9,86,-99.99,,,0.31,VWS V14.01,2013-07-10 22:30:00,
2013-07-10 19:00:00,72.3,67.9,30.24,NE,52,0.0,5.8,86,-99.99,,,0.31,VWS V14.01,2013-07-10 23:00:00,
2013-07-10 19:30:00,71.8,67.7,30.24,NE,52,0.0,4.0,87,-99.99,,,0.31,VWS V14.01,2013-07-10 23:30:00,
2013-07-10 20:00:00,71.2,67.2,30.24,SSW,198,3.1,10.5,87,-99.99,,,0.31,VWS V14.01,2013-07-11 00:00:00,
2013-07-10 20:30:00,70.9,67.2,30.24,South,189,0.0,5.4,88,-99.99,,,0.35,VWS V14.01,2013-07-11 00:30:00,
2013-07-10 21:00:00,70.9,67.2,30.24,South,189,0.0,0.0,88,-99.99,,,0.35,VWS V14.01,2013-07-11 01:00:00,
2013-07-10 21:30:00,70.3,66.9,30.24,NE,44,0.0,0.0,89,-99.99,,,0.35,VWS V14.01,2013-07-11 01:30:00,
2013-07-10 22:00:00,70.0,66.6,30.24,NE,38,0.0,4.0,89,-99.99,,,0.35,VWS V14.01,2013-07-11 02:00:00,
2013-07-10 22:30:00,69.6,66.6,30.21,SE,136,0.0,6.7,90,-99.99,,,0.35,VWS V14.01,2013-07-11 02:30:00,
2013-07-10 23:00:00,69.4,66.4,30.21,NNE,23,0.0,5.8,90,-99.99,,,0.35,VWS V14.01,2013-07-11 03:00:00,
2013-07-10 23:30:00,69.4,66.4,30.24,East,99,0.0,6.3,90,-99.99,,,0.35,VWS V14.01,2013-07-11 03:30:00,